DW9029 Weather Reports


Display with metric or nautical units.
time (UTC)temp
F
wind
direction
speed
MPH
gust
MPH
rain 1hr
in
rain 24hr
in
rain mn
in
humidity
%
barometer
mb
20260904141405 96 204 0.0 0.0 0.00 0.00 0.00 50 1015.7
20260904140905 96 247 1.0 3.0 0.00 0.00 0.00 50 1015.8
20260904140404 95 223 0.0 3.0 0.00 0.00 0.00 52 1015.9
20260904134904 94 182 0.0 2.0 0.00 0.00 0.00 53 1016.1
20260904134404 93 55 0.0 2.0 0.00 0.00 0.00 53 1016.2
20260904133904 93 101 0.0 0.0 0.00 0.00 0.00 54 1016.4
20260904133404 92 165 0.0 3.0 0.00 0.00 0.00 55 1016.5
20260904131404 91 103 0.0 2.0 0.00 0.00 0.00 56 1016.5
20260904130404 90 23 0.0 1.0 0.00 0.00 0.00 59 1016.5
20260904124904 89 118 0.0 1.0 0.00 0.00 0.00 60 1016.9
20260904124404 89 168 0.0 2.0 0.00 0.00 0.00 61 1017.0
20260904123905 89 132 1.0 3.0 0.00 0.00 0.00 61 1017.0
20260904121904 89 144 0.0 0.0 0.00 0.00 0.00 62 1017.3
20260904121404 89 135 1.0 3.0 0.00 0.00 0.00 62 1017.3
20260904120904 88 174 0.0 2.0 0.00 0.00 0.00 64 1017.3
20260904120404 87 127 0.0 5.0 0.00 0.00 0.00 65 1017.4
20260904114904 86 175 1.0 5.0 0.00 0.00 0.00 66 1017.7
20260904114405 86 124 0.0 0.0 0.00 0.00 0.00 67 1017.7
20260904111904 85 116 0.0 1.0 0.00 0.00 0.00 68 1018.1
20260904111404 85 143 0.0 0.0 0.00 0.00 0.00 68 1018.2
20260904110905 85 138 0.0 0.0 0.00 0.00 0.00 68 1018.3
20260904110405 85 226 0.0 2.0 0.00 0.00 0.00 67 1018.4
20260904104404 85 171 0.0 2.0 0.00 0.00 0.00 68 1018.6
20260904103904 85 134 0.0 2.0 0.00 0.00 0.00 67 1018.6
20260904103404 85 100 0.0 0.0 0.00 0.00 0.00 66 1018.6
20260904101904 84 13 0.0 0.0 0.00 0.00 0.00 67 1018.7
20260904101404 84 19 0.0 0.0 0.00 0.00 0.00 68 1018.8
20260904100404 84 91 0.0 3.0 0.00 0.00 0.00 70 1018.8
20260904094904 83 94 0.0 1.0 0.00 0.00 0.00 72 1019.0
20260904094404 82 117 0.0 0.0 0.00 0.00 0.00 74 1019.1
20260904093904 81 114 0.0 0.0 0.00 0.00 0.00 74 1019.0
20260904093404 81 88 0.0 0.0 0.00 0.00 0.00 75 1019.0
20260904091904 80 98 0.0 0.0 0.00 0.00 0.00 75 1019.0
20260904090904 80 256 0.0 0.0 0.00 0.00 0.00 76 1019.0
20260904090405 80 256 0.0 0.0 0.00 0.00 0.00 77 1019.1
20260904084905 79 268 0.0 2.0 0.00 0.00 0.00 79 1018.9
20260904083904 78 263 0.0 3.0 0.00 0.00 0.00 80 1019.0
20260904083404 78 236 0.0 6.0 0.00 0.00 0.00 81 1019.2
20260904081404 77 228 3.0 6.0 0.00 0.00 0.00 81 1018.8
20260904080904 77 195 0.0 3.0 0.00 0.00 0.00 81 1018.7
20260904074404 76 194 0.0 0.0 0.00 0.00 0.00 83 1018.4
20260904073904 76 220 0.0 0.0 0.00 0.00 0.00 83 1018.5
20260904073405 76 208 2.0 5.0 0.00 0.00 0.00 83 1018.5
20260904071905 76 201 0.0 0.0 0.00 0.00 0.00 83 1018.5
20260904071405 76 228 0.0 0.0 0.00 0.00 0.00 84 1018.4
20260904070904 75 205 0.0 0.0 0.00 0.00 0.00 83 1018.4
20260904064905 75 263 0.0 0.0 0.00 0.00 0.00 84 1018.4
20260904063904 74 240 0.0 0.0 0.00 0.00 0.00 85 1018.3
20260904061904 74 247 0.0 3.0 0.00 0.00 0.00 86 1018.3
20260904061405 74 248 0.0 1.0 0.00 0.00 0.00 85 1018.3
20260904060904 74 234 1.0 6.0 0.00 0.00 0.00 85 1018.1
20260904060404 74 273 1.0 5.0 0.00 0.00 0.00 85 1018.0
20260904054904 74 265 1.0 5.0 0.00 0.00 0.00 83 1018.0
20260904054404 75 274 2.0 6.0 0.00 0.00 0.00 83 1018.0
20260904053904 75 254 2.0 3.0 0.00 0.00 0.00 82 1018.0
20260904051904 76 223 0.0 0.0 0.00 0.00 0.00 79 1017.8
20260904051404 76 240 0.0 0.0 0.00 0.00 0.00 78 1017.8
20260904050904 76 240 0.0 0.0 0.00 0.00 0.00 78 1017.7
20260904044905 77 227 0.0 0.0 0.00 0.00 0.00 76 1017.6
20260904043904 77 199 0.0 0.0 0.00 0.00 0.00 75 1017.7
20260904043404 77 215 0.0 8.0 0.00 0.00 0.00 74 1017.7
20260904041904 77 252 1.0 5.0 0.00 0.00 0.00 72 1017.7
20260904041404 78 247 1.0 9.0 0.00 0.00 0.00 72 1017.5
20260904040904 78 251 3.0 12.0 0.00 0.00 0.00 71 1017.6
20260904040404 78 252 5.0 13.0 0.00 0.00 0.00 70 1017.6
20260904034904 79 253 3.0 12.0 0.00 0.00 0.00 68 1017.5
20260904033904 80 225 1.0 5.0 0.00 0.00 0.00 67 1017.4
20260904033405 80 257 2.0 8.0 0.00 0.00 0.00 67 1017.3
20260904031404 80 242 2.0 6.0 0.00 0.00 0.00 68 1017.3
20260904024904 78 243 4.0 10.0 0.00 0.00 0.00 72 1017.4
20260904024404 78 231 5.0 10.0 0.00 0.00 0.00 73 1017.3
20260904023904 78 220 3.0 7.0 0.00 0.00 0.00 74 1017.2
20260904023404 77 218 3.0 7.0 0.00 0.00 0.00 75 1017.1
20260904021904 77 184 1.0 5.0 0.00 0.00 0.00 75 1016.9
20260904021404 77 179 1.0 2.0 0.00 0.00 0.00 75 1016.9
20260904020904 77 179 0.0 1.0 0.00 0.00 0.00 75 1016.9
20260904020404 77 188 0.0 7.0 0.00 0.00 0.00 75 1016.8
20260904014904 79 141 4.0 7.0 0.00 0.00 0.00 72 1016.7
20260904014404 79 143 0.0 0.0 0.00 0.00 0.00 70 1016.7
20260904013904 80 130 0.0 0.0 0.00 0.00 0.00 69 1016.7
20260904013404 81 145 0.0 0.0 0.00 0.00 0.00 67 1016.8
20260904011904 86 103 0.0 0.0 0.00 0.00 0.00 59 1016.8
20260904011404 86 257 0.0 0.0 0.00 0.00 0.00 56 1016.8
20260904010904 86 276 0.0 0.0 0.00 0.00 0.00 56 1016.8
20260904010404 86 264 0.0 0.0 0.00 0.00 0.00 56 1016.8
20260904004904 87 263 0.0 0.0 0.00 0.00 0.00 56 1016.7
20260904004404 87 221 0.0 0.0 0.00 0.00 0.00 56 1016.7
20260904001904 87 249 0.0 0.0 0.00 0.00 0.00 56 1016.7
20260904000405 87 296 0.0 0.0 0.00 0.00 0.00 56 1016.7
20260903234404 87 244 0.0 3.0 0.00 0.00 0.00 55 1016.6
20260903233904 87 269 0.0 5.0 0.00 0.00 0.00 55 1016.6
20260903233404 87 261 3.0 7.0 0.00 0.00 0.00 55 1016.6
20260903231904 88 269 3.0 8.0 0.00 0.00 0.00 55 1016.6
20260903231404 88 265 3.0 8.0 0.00 0.00 0.00 55 1016.4
20260903230905 88 267 3.0 9.0 0.00 0.00 0.00 55 1016.5
20260903230404 88 259 4.0 8.0 0.00 0.00 0.00 55 1016.4
20260903224404 88 273 4.0 7.0 0.00 0.00 0.00 55 1016.4
20260903223904 88 262 1.0 7.0 0.00 0.00 0.00 55 1016.4
20260903223404 88 273 4.0 8.0 0.00 0.00 0.00 55 1016.4
20260903221904 88 269 3.0 8.0 0.00 0.00 0.00 55 1016.4
20260903221404 88 291 0.0 5.0 0.00 0.00 0.00 55 1016.4
20260903220904 88 280 2.0 5.0 0.00 0.00 0.00 56 1016.4
20260903214404 88 296 2.0 7.0 0.00 0.00 0.00 56 1016.4
20260903213904 88 280 2.0 7.0 0.00 0.00 0.00 56 1016.4
20260903213404 88 281 2.0 9.0 0.00 0.00 0.00 55 1016.4
20260903211904 90 266 2.0 6.0 0.00 0.00 0.00 52 1016.3
20260903211404 90 225 0.0 6.0 0.00 0.00 0.00 52 1016.3
20260903210904 91 257 1.0 6.0 0.00 0.00 0.00 51 1016.3
20260903210404 91 228 0.0 7.0 0.00 0.00 0.00 51 1016.2
20260903204905 92 202 3.0 7.0 0.00 0.00 0.00 50 1016.0
20260903204404 92 202 1.0 5.0 0.00 0.00 0.00 49 1015.9
20260903203405 93 243 6.0 12.0 0.00 0.00 0.00 48 1015.5
20260903201904 93 249 5.0 12.0 0.00 0.00 0.00 48 1015.1
20260903201403 94 252 7.0 10.0 0.00 0.00 0.00 47 1015.1
20260903200904 94 245 3.0 8.0 0.00 0.00 0.00 47 1015.1
20260903200404 94 248 6.0 15.0 0.00 0.00 0.00 47 1015.0
20260903194404 95 249 9.0 15.0 0.00 0.00 0.00 46 1014.8
20260903193904 95 245 7.0 13.0 0.00 0.00 0.00 45 1014.6
20260903193404 96 249 6.0 12.0 0.00 0.00 0.00 44 1014.6
20260903191904 98 256 4.0 8.0 0.00 0.00 0.00 41 1014.3
20260903191404 98 254 5.0 8.0 0.00 0.00 0.00 40 1014.3
20260903184904 102 248 4.0 7.0 0.00 0.00 0.00 33 1014.2
20260903184404 104 249 3.0 8.0 0.00 0.00 0.00 29 1014.1
20260903183904 105 234 2.0 5.0 0.00 0.00 0.00 24 1014.1
20260903183404 106 242 1.0 3.0 0.00 0.00 0.00 23 1014.1
20260903181905 108 315 0.0 0.0 0.00 0.00 0.00 22 1014.1
20260903181404 108 315 0.0 0.0 0.00 0.00 0.00 19 1014.1
20260903180904 108 315 0.0 0.0 0.00 0.00 0.00 18 1014.1
20260903180404 109 315 0.0 0.0 0.00 0.00 0.00 19 1014.2
20260903174904 109 315 0.0 0.0 0.00 0.00 0.00 19 1014.2
20260903173904 110 316 0.0 0.0 0.00 0.00 0.00 18 1014.2
20260903171904 110 319 0.0 0.0 0.00 0.00 0.00 18 1014.3
20260903171404 110 319 0.0 0.0 0.00 0.00 0.00 18 1014.2
20260903170904 110 319 0.0 0.0 0.00 0.00 0.00 18 1014.3
20260903170404 110 319 0.0 3.0 0.00 0.00 0.00 18 1014.3
20260903164904 109 355 0.0 0.0 0.00 0.00 0.00 19 1014.4
20260903164404 109 0 0.0 0.0 0.00 0.00 0.00 19 1014.3
20260903163904 109 1 1.0 6.0 0.00 0.00 0.00 19 1014.4
20260903161904 108 345 3.0 7.0 0.00 0.00 0.00 20 1014.4
20260903161403 108 56 2.0 6.0 0.00 0.00 0.00 20 1014.4
20260903160904 108 58 1.0 7.0 0.00 0.00 0.00 20 1014.4
20260903160404 108 15 3.0 5.0 0.00 0.00 0.00 20 1014.4
20260903154904 108 14 0.0 3.0 0.00 0.00 0.00 22 1014.5
20260903154404 108 54 4.0 7.0 0.00 0.00 0.00 22 1014.5
20260903153904 108 36 3.0 7.0 0.00 0.00 0.00 22 1014.6
20260903153404 108 5 2.0 6.0 0.00 0.00 0.00 20 1014.5
20260903151904 107 337 0.0 5.0 0.00 0.00 0.00 24 1014.7
20260903151403 107 45 6.0 8.0 0.00 0.00 0.00 23 1014.8
20260903144904 107 354 0.0 5.0 0.00 0.00 0.00 25 1015.0
20260903144404 107 359 1.0 6.0 0.00 0.00 0.00 24 1015.1
20260903143403 107 10 2.0 7.0 0.00 0.00 0.00 24 1015.1
20260903141904 107 315 3.0 7.0 0.00 0.00 0.00 25 1015.3